Wind_Speed
34 34 34 35 35 35 35 34 35 35 35 36 36 35 35 34 33 34 35 37 38 38 38 37 38 39 41 42 41 42 43 41 37 37 36 34 33 31 28 27 27 27 28 28 27 28 28 28 29 29 28 26 24 24 25 25 25 24 23 22 22 23 24 23 23 21 21 22 21 21 22 24 23 20 20 22 21 19 20 21 20 19 19 19 19
34 34 35 35 35 35 35 35 35 36 36 37 36 36 35 35 35 36 37 38 38 38 38 39 39 40 41 42 42 42 42 39 35 34 34 32 32 31 28 28 28 28 29 29 27 26 27 28 29 29 28 27 25 25 26 26 26 25 25 23 24 26 25 24 23 22 22 23 22 22 23 23 24 22 19 21 22 19 19 20 19 18 19 19 19
35 35 35 35 36 36 36 36 36 37 37 37 37 37 36 36 37 38 38 38 38 39 40 40 40 40 41 41 42 43 42 37 33 32 31 31 31 31 29 29 29 27 28 29 27 25 27 29 29 29 29 28 26 27 27 26 27 27 26 25 26 27 26 24 23 23 23 24 23 23 23 23 25 23 21 23 22 19 19 20 19 18 19 20 20
35 35 36 36 36 36 37 37 37 37 37 38 38 37 38 38 39 39 39 39 39 39 41 41 41 41 41 41 41 42 42 37 31 30 30 30 29 30 29 28 27 27 28 30 29 27 27 28 28 29 30 29 27 28 27 26 27 27 27 26 25 25 25 24 24 25 25 25 24 24 24 25 25 24 23 23 21 18 18 20 19 19 20 21 21
35 35 36 36 37 37 38 38 38 38 38 38 38 38 39 39 39 40 39 40 40 41 42 42 41 42 42 42 41 40 40 36 32 29 28 28 28 29 30 29 27 27 29 31 29 27 27 26 27 28 30 30 29 29 28 27 28 28 28 28 25 23 24 25 25 25 25 25 24 24 24 25 25 24 23 23 22 19 18 19 20 20 20 21 21
35 36 36 36 37 37 38 38 39 39 39 39 39 39 40 40 39 40 40 40 41 41 42 43 42 42 42 42 41 39 39 38 34 31 29 27 27 28 30 30 29 29 31 31 29 28 27 26 26 28 29 29 29 28 28 27 28 29 28 28 25 23 24 25 24 24 24 24 24 24 24 24 24 24 23 23 21 19 18 19 21 21 20 21 21
36 36 36 37 37 38 38 39 39 40 40 39 39 39 40 40 40 40 41 42 42 42 43 43 42 41 41 42 42 40 40 39 35 32 30 28 28 29 30 31 30 30 31 30 30 30 27 24 25 27 29 28 27 27 28 28 29 29 27 27 26 25 25 24 23 23 24 24 24 24 25 25 23 23 23 22 21 21 21 21 21 20 20 20 20
37 37 37 38 38 38 39 39 39 39 39 39 39 39 40 41 41 42 43 44 44 44 43 42 42 41 40 40 41 40 40 39 34 31 30 29 29 30 31 30 30 31 31 30 30 30 28 24 24 27 28 27 27 27 28 28 28 27 27 27 27 27 26 24 23 23 23 24 23 23 24 24 23 23 25 24 23 24 24 22 21 20 20 20 20
38 38 38 39 39 39 40 40 40 40 40 40 41 41 42 43 43 44 45 45 45 45 44 43 42 41 40 39 40 40 40 38 34 31 30 30 30 30 30 30 29 29 30 29 29 29 28 25 24 25 26 27 27 27 27 27 27 27 27 27 27 28 28 25 23 22 23 23 24 23 23 24 23 25 27 26 24 25 26 24 22 20 21 22 21
38 38 39 39 40 41 41 41 42 42 43 43 44 44 45 45 45 46 46 47 47 46 46 44 42 41 40 39 38 38 39 38 35 31 30 31 31 29 29 30 29 28 28 29 29 28 28 26 24 24 25 26 26 26 27 27 27 27 27 27 28 29 29 26 23 23 23 23 24 24 24 24 24 26 28 27 26 27 27 25 23 22 21 22 22
39 39 40 40 41 42 42 43 44 44 44 45 45 45 46 46 47 47 47 48 48 47 47 45 42 40 40 39 37 36 36 36 34 31 29 30 29 28 28 30 31 30 29 29 28 28 28 27 25 24 24 25 26 27 28 28 27 27 27 27 28 29 28 27 25 24 24 25 25 24 25 25 25 26 29 28 27 27 27 25 24 24 22 22 23
40 41 41 41 42 42 42 43 43 43 43 43 43 44 45 46 46 47 47 48 48 48 48 46 43 39 38 38 36 34 34 34 32 29 27 27 27 27 27 28 29 31 30 29 29 29 28 28 27 26 25 26 27 27 28 28 27 28 28 28 29 29 28 27 26 26 26 26 26 26 26 26 26 27 29 29 28 28 27 25 24 25 24 23 23
41 41 41 42 42 41 41 42 42 42 43 43 43 44 44 45 46 47 47 48 49 49 48 47 45 41 38 37 36 34 32 31 31 29 27 26 25 25 25 25 27 29 30 29 29 28 28 28 29 28 27 27 28 28 28 28 27 27 28 29 30 30 29 29 28 28 27 26 27 27 27 27 27 27 28 28 28 29 28 26 26 27 26 25 25
41 41 41 41 42 42 42 42 43 43 43 43 44 44 45 45 46 47 47 48 49 49 49 48 47 43 39 38 37 35 32 31 30 28 27 27 27 26 25 25 27 29 30 31 30 29 28 29 29 29 29 28 28 27 27 28 28 28 29 30 30 30 30 30 30 29 28 27 27 27 27 27 27 28 29 29 29 29 29 28 28 29 29 29 29
41 41 41 42 42 43 43 44 44 44 45 45 45 46 46 46 47 47 47 48 49 49 49 49 48 45 41 39 39 38 35 33 31 29 27 27 27 27 27 27 28 29 30 31 31 31 30 30 29 30 30 30 29 27 26 27 29 29 30 31 31 31 31 31 31 29 28 28 27 27 27 27 26 28 30 30 30 30 30 30 31 32 32 31 31
41 42 42 43 44 44 45 46 46 47 47 48 48 48 48 48 48 48 48 48 49 49 49 48 47 45 42 39 38 39 38 36 34 31 29 28 27 28 29 29 30 31 31 32 32 32 32 32 31 31 31 30 29 28 27 28 30 30 30 31 31 31 32 32 31 30 29 28 27 27 26 26 27 30 31 31 31 31 31 31 32 33 33 32 31
41 42 43 43 44 45 46 47 47 48 48 49 49 49 49 50 50 49 49 49 49 49 49 49 47 46 44 40 38 39 39 38 36 33 31 29 28 27 28 30 31 32 32 34 35 34 34 35 35 34 33 31 29 29 29 29 31 31 30 30 30 31 32 32 31 30 29 28 28 28 27 27 30 32 32 32 32 31 31 31 31 32 33 32 31
40 41 42 42 44 45 46 47 47 48 48 49 49 50 50 50 50 50 50 50 49 49 50 50 49 47 45 42 39 38 39 39 38 36 33 31 30 29 27 28 30 32 33 34 35 35 36 36 37 37 36 34 32 31 29 28 30 32 31 30 30 31 31 31 30 29 29 29 29 29 28 29 31 32 34 34 33 33 33 32 31 32 34 34 33
41 41 42 44 45 46 47 48 49 50 50 51 52 52 52 52 53 52 52 52 51 51 51 51 51 49 48 46 43 40 40 40 40 38 36 34 32 31 29 28 28 29 32 34 35 36 36 37 38 38 38 37 36 35 32 29 30 33 34 31 31 32 32 32 31 30 30 30 30 29 30 32 32 33 34 34 34 34 32 30 32 35 36 35 34
42 43 44 45 46 47 48 49 50 51 52 53 54 54 55 55 56 56 55 55 55 55 54 54 54 53 52 50 47 44 42 41 41 41 39 37 35 33 32 31 30 29 29 31 33 34 36 37 38 39 38 37 37 38 38 35 33 34 36 35 33 33 33 34 33 33 33 33 33 33 35 36 35 34 34 34 35 34 31 31 36 37 35 35 35
41 42 43 44 45 45 46 47 48 49 50 51 52 53 54 55 56 56 57 57 57 57 57 57 57 57 56 53 50 47 44 43 43 42 42 40 38 36 35 34 33 31 30 29 30 30 32 36 39 40 38 36 35 37 39 39 37 37 37 37 36 36 36 36 36 35 34 35 36 38 38 38 37 36 35 35 35 36 35 36 38 37 35 36 38
38 39 40 41 42 43 45 46 47 48 49 50 51 52 52 53 54 54 55 56 56 57 58 58 58 58 57 55 52 49 46 45 44 44 44 43 41 39 38 37 35 34 33 32 30 30 30 31 35 38 39 38 37 38 40 41 41 40 40 40 39 39 40 40 38 37 36 36 38 39 40 40 39 39 38 37 37 38 38 39 39 38 38 39 40
37 38 39 40 42 43 45 46 47 48 50 51 52 52 53 53 54 54 54 54 55 55 56 57 57 58 58 56 53 50 46 45 44 44 45 44 43 42 41 40 39 37 36 35 34 33 32 31 31 33 36 38 39 39 39 40 40 41 43 43 42 42 43 42 41 40 41 41 41 41 41 41 41 40 40 40 40 40 40 40 40 40 40 41 41
34 35 36 38 39 41 42 44 46 47 48 50 51 52 53 54 54 55 55 55 55 55 55 55 56 56 57 56 53 51 47 44 43 44 44 44 45 44 43 42 42 40 40 39 37 36 35 34 33 32 33 35 36 37 38 37 36 37 40 42 44 46 47 46 44 46 47 47 45 43 41 42 43 43 43 43 43 42 42 41 41 41 41 42 43
29 31 32 34 35 37 38 39 41 42 43 45 46 47 49 50 51 53 53 54 54 55 55 55 55 55 56 56 54 52 49 45 43 43 43 44 45 45 44 44 44 44 43 42 40 39 38 38 37 35 34 35 35 36 36 36 36 36 38 38 40 44 47 47 47 48 49 48 45 43 42 43 44 44 44 45 44 44 43 43 43 42 42 42 43
26 28 29 31 32 33 34 35 36 37 38 39 40 41 42 43 45 46 48 49 51 52 53 54 55 55 55 56 55 54 51 47 44 42 42 43 44 45 45 45 45 45 45 45 43 42 41 40 40 38 37 37 38 37 37 37 39 39 37 35 34 36 38 42 45 45 45 45 45 45 44 44 43 42 43 44 45 46 46 46 45 44 43 42 43
24 26 27 29 30 31 32 33 33 34 35 36 36 37 37 37 38 39 41 42 44 46 48 50 51 53 53 54 55 54 52 49 46 43 42 42 43 44 45 45 45 45 46 47 46 45 44 44 43 41 40 39 40 40 38 38 40 41 40 38 35 33 31 34 38 41 42 42 42 42 42 42 41 41 41 42 44 45 46 47 47 46 44 44 44
23 25 27 28 30 32 34 36 37 37 37 36 36 36 36 36 36 36 37 37 38 39 41 43 45 47 49 50 52 53 52 50 47 45 43 42 42 43 43 44 45 45 45 46 47 47 47 46 45 44 44 42 42 41 39 39 40 41 41 39 38 35 33 32 34 38 41 42 41 39 37 37 38 38 38 38 38 39 39 40 41 41 41 42 43
23 25 27 29 31 33 35 37 38 40 40 39 37 36 35 36 36 36 36 36 36 37 38 38 39 41 43 45 47 49 49 49 47 45 43 43 42 43 43 44 44 45 45 45 46 47 48 48 47 46 46 45 45 43 41 40 41 42 42 41 39 37 36 34 34 37 41 42 42 41 39 38 38 38 38 37 36 36 36 36 37 39 41 42 44
24 25 27 29 31 32 34 35 37 39 41 41 39 36 34 33 33 34 35 35 35 36 36 37 38 37 38 39 41 43 45 46 45 44 43 43 42 43 43 44 44 44 45 44 45 46 47 48 48 47 46 46 46 45 43 42 42 43 43 44 42 39 37 36 35 37 40 41 41 41 41 39 38 38 38 37 36 37 39 40 42 43 43 44 44
24 26 27 28 30 31 33 35 36 38 40 42 42 40 37 34 32 33 33 34 34 34 34 36 37 37 36 36 37 39 40 41 42 42 41 42 42 42 43 44 44 44 44 44 44 44 45 46 47 47 46 46 46 45 44 43 43 43 44 45 44 42 40 39 38 40 41 42 42 43 42 41 40 41 41 39 38 40 43 44 43 42 42 43 44
24 25 27 29 30 32 33 34 36 37 39 41 43 44 42 39 36 35 35 35 35 34 33 33 33 34 35 35 35 35 36 37 38 38 39 39 40 41 43 44 45 45 44 44 43 43 43 44 45 46 46 46 45 44 44 44 44 44 45 46 46 44 43 41 41 42 44 45 45 46 45 45 44 45 45 44 44 44 46 45 43 42 43 45 46
25 26 27 29 30 31 33 34 36 38 39 41 43 45 46 44 41 39 39 39 37 35 33 31 30 30 31 31 32 33 33 34 34 35 36 37 38 39 41 43 45 45 45 44 43 42 42 42 42 43 44 45 45 44 44 44 45 45 46 47 47 46 45 43 43 45 48 49 49 48 48 48 48 50 50 50 49 48 48 47 46 45 47 49 50
25 26 28 29 30 31 33 34 36 37 39 41 42 44 46 46 45 43 42 43 41 37 34 31 29 28 27 27 28 29 30 31 31 32 32 33 35 37 39 41 43 45 45 45 43 42 42 41 41 41 41 41 42 43 44 44 45 46 46 47 47 47 46 45 46 49 51 51 50 50 50 51 52 53 54 54 53 52 51 49 48 48 50 52 52
24 25 27 28 30 31 33 34 36 37 39 40 42 44 46 47 47 45 44 44 43 39 35 32 30 29 28 26 25 25 26 27 28 29 29 30 32 34 37 39 41 43 44 44 44 42 41 41 41 41 41 41 41 42 42 44 44 45 46 46 47 47 47 48 49 51 52 51 50 50 51 52 52 53 54 54 54 53 52 51 50 50 51 53 53
25 26 28 29 30 31 32 34 35 37 39 40 41 43 45 47 48 47 46 45 44 40 36 33 31 30 29 28 27 25 24 24 24 26 26 26 28 30 33 36 38 39 41 42 42 41 41 40 41 41 42 43 43 44 45 44 44 45 46 47 48 49 50 51 51 51 51 50 50 50 50 51 52 52 52 52 52 52 52 51 51 51 52 53 54
26 27 28 28 30 31 32 34 35 37 38 40 41 42 44 46 48 48 47 46 45 41 37 34 33 31 30 29 28 26 24 23 22 22 23 23 24 26 29 32 34 36 38 39 40 40 40 40 40 41 42 43 44 46 48 48 48 46 45 45 46 48 50 51 52 52 52 52 52 52 52 52 52 52 52 52 52 51 51 51 51 52 52 53 54
26 27 28 29 30 31 33 34 35 36 38 39 41 42 43 45 47 48 47 46 45 43 39 35 34 33 31 29 28 26 24 23 21 20 21 21 21 22 24 28 30 32 34 35 37 38 38 39 39 40 42 43 44 45 46 48 51 51 50 48 46 45 46 47 49 51 52 53 54 54 53 53 52 52 52 52 52 51 51 52 52 53 53 54 54
26 27 28 28 29 30 31 33 34 35 37 39 40 41 42 43 45 47 48 47 46 44 40 36 35 34 33 30 28 26 24 22 21 19 19 19 19 19 20 23 26 28 30 31 33 34 36 38 39 40 40 41 43 43 43 43 46 49 51 51 50 48 47 46 46 47 48 49 50 50 49 49 49 49 49 50 50 50 51 51 51 52 52 51 51
27 28 28 29 29 30 31 32 33 35 36 37 39 40 42 43 44 46 48 47 47 45 43 39 36 34 34 32 29 26 24 22 21 19 18 17 18 18 18 19 21 23 26 27 28 30 32 34 36 39 40 39 39 40 41 41 41 42 44 46 47 48 48 47 45 45 45 45 45 45 45 44 44 45 45 45 46 46 46 46 46 46 46 45 44
29 30 30 31 31 31 32 33 34 35 36 37 39 41 42 43 43 45 46 47 47 46 45 42 38 35 34 32 29 26 24 22 21 20 19 17 17 16 17 17 18 19 21 23 25 26 28 30 32 35 37 37 36 36 36 37 37 38 38 40 41 42 43 43 43 43 42 42 41 41 41 41 41 41 41 41 42 42 42 42 41 41 41 41 40
30 31 32 32 32 32 32 32 34 35 37 38 39 40 42 43 43 44 45 47 47 47 46 44 41 37 35 33 30 27 24 22 21 20 20 18 17 16 16 16 16 17 18 20 22 23 24 26 28 30 32 34 34 33 32 32 33 33 33 33 34 35 37 38 38 39 39 39 39 38 38 39 39 39 39 39 39 39 39 39 38 38 38 38 37
30 31 32 32 32 32 32 32 33 35 36 38 39 40 41 42 43 43 44 46 47 47 47 46 44 40 36 34 32 28 24 21 20 20 20 19 18 17 16 15 15 15 16 16 18 20 22 23 24 26 27 29 30 30 29 29 29 29 29 29 29 30 30 31 32 33 34 34 34 35 35 35 35 35 35 35 35 35 35 35 34 34 34 33 33
30 32 32 33 33 33 33 33 33 34 36 37 38 40 41 42 42 43 43 44 46 47 46 46 45 43 39 35 33 30 25 21 20 20 20 19 18 17 16 15 15 15 15 14 15 17 19 20 21 22 23 24 26 27 27 27 26 26 26 26 26 26 26 27 28 28 29 30 30 30 31 31 31 31 31 30 30 30 30 30 30 30 29 29 29
30 31 32 33 33 34 34 33 34 34 35 36 38 39 40 42 42 43 43 43 44 45 46 46 46 45 41 37 35 32 29 23 20 19 20 20 19 18 16 15 15 14 14 14 14 14 15 17 19 20 21 22 23 23 24 24 25 24 24 24 24 24 24 24 24 25 26 26 27 27 27 27 27 27 27 27 27 27 26 26 26 26 26 26 25
30 31 32 33 33 33 34 34 34 34 35 36 38 39 40 41 42 42 42 42 43 44 45 45 45 45 44 40 36 34 32 28 22 19 19 19 20 19 18 16 15 14 14 14 14 13 14 15 16 18 19 20 21 21 21 22 22 22 22 23 23 22 22 21 21 22 22 23 23 23 23 23 23 23 24 24 24 23 23 23 23 23 23 24 23
30 30 31 32 33 34 34 34 35 35 35 36 37 39 40 41 41 41 42 42 42 43 44 45 45 44 44 42 38 35 33 31 27 22 18 18 19 19 18 17 16 15 15 14 14 13 13 13 14 15 17 18 19 20 20 20 20 20 21 21 21 21 21 21 21 21 21 21 20 20 21 21 21 21 22 22 21 21 22 22 22 22 22 22 22
29 30 31 32 33 34 35 35 35 36 36 36 37 38 40 40 41 41 41 41 42 42 43 43 44 44 44 43 41 37 34 32 30 26 21 18 17 18 18 17 17 16 15 15 14 14 13 13 13 14 15 16 17 18 19 19 19 20 20 20 20 21 21 21 21 21 21 21 21 21 21 22 22 21 21 21 21 21 21 21 21 21 21 21 21
29 30 31 32 33 34 35 36 36 37 37 37 37 38 39 40 40 41 41 40 40 41 41 42 42 43 42 43 42 40 36 33 31 29 26 22 18 17 17 17 17 16 16 15 15 14 14 14 13 13 14 14 15 16 17 18 19 19 20 20 20 20 21 21 21 21 21 21 21 22 22 22 22 22 22 22 21 21 21 21 20 20 20 20 20
29 30 31 32 33 34 34 35 36 37 37 37 37 37 38 39 40 41 41 40 40 40 40 41 42 42 42 42 42 41 39 35 32 30 29 26 22 19 18 17 17 16 16 15 15 15 14 14 14 14 14 14 14 15 16 17 18 18 19 19 19 20 20 21 21 21 21 22 22 22 22 22 22 22 21 21 21 20 20 20 19 19 19 20 20
30 30 31 32 33 34 34 35 36 37 37 37 37 37 38 38 39 40 40 40 40 39 39 40 41 42 42 42 41 40 39 37 34 31 29 28 26 23 20 19 18 17 16 16 16 15 14 14 14 15 15 15 15 15 15 16 16 17 18 18 19 19 19 20 20 21 21 21 21 22 22 22 21 21 21 21 20 20 19 19 19 19 19 19 19
Wind_Direction
281 279 278 276 276 276 277 278 280 282 285 287 290 291 293 294 293 294 296 297 298 298 297 298 300 303 305 308 310 310 310 308 298 289 287 282 271 263 260 262 261 256 250 248 247 247 248 251 253 253 253 251 248 247 248 250 251 250 249 250 250 250 251 252 252 252 253 253 253 253 251 248 249 253 258 260 260 261 263 262 259 258 258 257 254
280 278 276 275 275 275 276 277 279 282 285 287 289 290 291 292 292 293 295 295 295 296 296 298 301 303 306 308 310 311 311 308 298 290 285 278 267 260 260 262 261 257 251 248 246 245 247 252 254 255 255 252 249 247 248 250 251 251 250 249 248 250 254 254 253 254 253 251 251 251 250 251 253 254 255 258 261 263 262 261 260 260 259 258 255
279 277 275 275 275 275 275 276 279 281 284 286 287 289 290 291 292 293 293 294 294 295 296 298 301 302 305 308 310 312 313 309 300 292 286 277 266 259 258 259 258 256 250 244 242 243 248 252 254 253 253 251 248 247 247 249 251 253 253 250 247 250 253 253 253 254 252 252 253 252 253 254 254 256 256 257 261 263 262 262 261 260 258 257 256
277 275 275 275 275 275 276 277 279 281 283 285 286 288 289 289 291 291 292 292 293 294 296 298 300 302 304 308 310 312 313 308 299 292 284 276 267 261 258 255 251 247 245 241 239 240 243 247 249 249 250 249 248 247 246 248 251 253 253 250 247 248 251 251 250 249 249 252 253 254 255 253 253 257 255 252 257 262 261 262 262 259 257 257 257
275 274 275 275 275 276 276 277 279 281 283 284 285 286 286 287 288 289 290 291 292 294 296 298 300 302 303 306 309 311 312 306 296 287 280 272 265 261 260 256 247 242 239 237 236 236 238 242 246 247 247 247 247 246 247 248 249 251 251 251 250 250 251 251 250 248 251 255 255 255 254 249 251 256 250 248 258 262 258 261 262 260 258 258 258
275 275 275 275 276 276 277 278 280 281 282 282 283 283 284 285 287 288 289 291 293 294 296 298 300 302 304 306 308 310 312 309 298 285 278 271 263 259 257 254 247 241 237 234 236 236 235 238 244 246 246 245 245 246 247 248 248 248 248 249 250 250 251 250 250 251 254 257 257 256 252 245 249 253 246 243 254 260 261 263 263 260 259 259 258
275 275 275 276 276 277 277 278 279 280 281 281 282 282 283 284 286 288 289 291 292 294 296 298 299 302 305 306 308 309 312 311 300 286 278 272 264 259 257 252 246 241 238 236 237 238 237 236 241 246 247 248 248 249 248 248 248 247 246 247 250 251 251 251 253 255 257 258 258 256 249 242 243 246 243 242 252 262 265 265 261 259 259 259 257
274 274 274 275 275 276 276 277 278 279 280 281 281 282 283 285 286 288 290 291 292 293 295 297 298 302 304 306 307 308 310 310 302 288 281 274 267 264 260 252 246 245 243 238 235 236 238 237 239 244 247 247 248 248 248 248 248 248 250 251 253 254 255 254 255 256 257 259 259 254 247 242 240 243 247 251 257 261 263 264 262 259 258 257 256
274 275 274 274 275 275 275 276 277 278 279 280 282 283 283 285 286 288 289 290 291 292 294 296 297 300 303 304 306 307 309 310 302 291 282 274 268 267 260 251 247 247 243 236 232 234 237 237 237 241 244 246 249 249 249 248 248 250 252 252 253 256 257 256 254 254 255 257 257 253 248 246 247 251 256 257 253 254 259 263 261 257 254 255 254
277 277 276 276 276 276 276 276 277 278 279 280 281 282 283 284 285 287 288 289 289 291 293 295 296 298 300 302 304 305 308 309 305 295 285 274 266 264 259 250 246 245 242 237 236 235 236 237 237 237 240 245 250 252 251 250 249 250 251 252 253 255 257 256 253 252 253 254 253 251 250 251 252 256 260 258 252 252 257 259 258 256 254 254 253
280 280 280 279 279 278 278 279 279 280 280 281 281 281 282 283 284 285 286 287 288 289 291 294 295 296 297 299 302 303 305 308 308 300 288 277 268 263 258 251 246 244 241 237 235 235 236 239 240 237 238 242 247 251 252 253 254 254 254 255 254 254 255 255 253 252 252 252 251 251 252 254 255 257 259 258 256 256 257 256 256 258 258 257 255
281 282 282 281 281 280 280 280 281 281 281 281 281 281 282 282 283 284 284 285 286 288 289 292 293 294 295 296 298 301 303 305 307 300 286 277 271 265 260 253 246 242 237 232 233 235 236 240 242 240 240 242 245 248 251 253 256 257 257 258 257 255 254 253 252 250 248 248 250 252 253 255 255 255 257 259 261 261 260 258 259 261 261 258 255
281 281 282 281 281 280 280 281 281 281 281 281 281 281 281 281 282 282 283 284 285 286 288 290 291 292 293 294 295 298 300 301 304 300 287 276 270 265 257 249 242 239 236 236 237 236 236 240 244 244 243 244 243 242 245 249 252 253 255 257 257 256 255 253 252 250 248 247 250 252 253 253 254 253 254 257 259 261 262 261 260 260 259 257 256
281 281 281 280 279 278 279 280 281 281 281 281 281 281 281 281 281 281 282 283 283 285 286 288 289 290 290 290 291 293 296 297 299 299 292 280 271 266 258 248 242 241 242 243 241 236 236 240 244 246 247 246 242 238 239 246 251 252 253 253 253 254 254 254 252 250 249 249 249 252 253 252 254 254 254 253 254 255 258 259 259 259 259 260 261
281 280 280 279 278 278 279 280 281 281 281 281 281 281 281 281 281 280 280 281 281 282 284 286 287 288 288 288 288 289 291 292 293 294 293 285 276 268 262 255 249 246 247 245 239 235 237 239 241 245 249 249 247 244 241 245 249 250 250 250 249 248 250 251 251 250 251 250 250 252 255 256 256 255 254 253 252 252 254 257 259 262 262 262 263
280 280 280 280 279 279 279 280 280 281 281 281 280 280 280 280 279 279 279 279 279 280 281 282 284 286 287 286 286 286 286 287 288 289 289 287 282 274 266 260 256 252 249 245 240 239 242 242 240 244 248 248 249 249 248 247 249 249 249 248 247 246 246 248 250 251 253 254 254 256 257 257 256 254 254 255 255 255 256 259 261 263 262 262 263
281 281 281 281 281 281 280 280 280 280 280 280 280 279 279 279 278 278 278 277 277 277 278 279 280 282 284 284 283 282 283 284 284 284 283 283 282 279 272 264 259 256 253 249 245 244 245 245 244 245 247 247 248 251 252 252 251 252 251 249 248 248 247 247 248 252 254 254 255 258 258 256 254 255 256 256 256 257 257 258 259 261 261 261 262
281 281 282 282 282 282 281 281 281 280 280 280 280 279 279 278 278 277 277 276 276 276 276 276 277 278 280 281 280 279 279 280 280 280 279 278 277 277 275 269 261 257 256 254 250 246 245 246 246 246 246 246 247 251 254 253 251 252 252 250 247 246 248 249 249 250 252 253 255 258 260 257 256 257 258 258 258 257 257 259 259 259 260 261 263
283 283 283 283 283 283 283 283 282 282 281 281 280 280 279 279 278 277 276 276 276 275 275 275 276 276 277 279 279 277 275 276 277 277 277 275 274 273 273 271 266 260 258 256 252 248 247 245 245 245 246 246 246 250 253 252 250 251 252 252 249 247 249 250 249 248 250 253 254 255 255 255 255 256 257 259 260 260 260 262 261 260 260 263 265
286 286 286 286 286 285 285 285 284 284 283 283 282 281 280 280 279 278 277 276 275 275 275 275 275 276 276 277 277 276 274 272 273 274 274 273 271 270 269 268 267 265 262 259 254 250 247 246 246 247 247 247 248 251 253 253 253 253 254 255 255 253 251 249 249 251 252 253 253 252 253 254 255 255 256 257 259 259 257 255 256 258 262 266 268
289 289 289 289 289 288 288 287 287 286 286 285 284 283 282 282 281 280 279 278 277 276 275 275 275 276 276 276 276 275 273 271 270 270 271 271 270 268 266 265 264 264 263 263 261 256 251 248 249 250 250 249 249 252 253 253 252 253 254 255 255 254 253 251 252 254 255 255 255 255 255 256 256 255 255 254 256 256 254 251 252 255 257 259 261
293 292 292 292 291 290 290 289 288 287 286 285 285 284 283 282 282 281 280 280 279 277 277 276 275 276 277 277 277 275 273 270 268 267 268 268 268 266 265 263 262 261 260 260 261 261 259 254 252 252 251 249 248 250 252 253 253 253 254 254 255 255 254 254 254 255 256 258 260 259 257 256 255 254 255 254 255 255 255 254 254 254 254 254 255
295 295 295 294 293 292 291 290 288 287 286 285 284 283 282 281 281 280 280 279 279 278 278 277 276 276 277 278 278 277 274 270 268 266 265 265 265 265 263 262 261 259 259 258 257 258 259 258 257 255 252 249 247 247 249 251 254 255 255 255 256 257 255 254 253 253 256 262 265 261 257 255 255 255 255 254 253 253 254 254 255 255 255 255 255
300 300 300 300 299 297 296 295 292 290 289 287 286 284 283 281 280 280 279 278 278 277 277 277 276 276 277 278 279 278 276 273 269 266 263 262 262 262 262 261 260 259 258 257 257 256 256 256 257 258 258 256 252 250 248 248 250 256 258 257 256 257 257 256 255 254 258 264 265 260 256 254 252 251 252 253 253 253 254 255 256 256 256 256 257
310 310 311 310 309 307 306 304 302 299 296 294 292 290 288 285 283 282 280 279 278 277 276 275 275 275 276 276 277 277 277 275 271 267 264 261 259 259 259 258 258 259 258 257 256 256 255 254 254 255 257 259 259 257 255 252 252 255 257 256 255 255 256 256 256 256 259 262 262 259 258 257 256 253 253 253 253 254 254 254 255 255 256 257 258
322 323 324 324 323 322 320 319 317 314 310 306 302 299 297 294 291 288 285 282 280 278 277 275 274 274 274 274 275 275 276 275 272 268 265 262 260 258 257 256 255 256 256 257 256 255 255 254 254 253 252 255 257 257 256 256 257 259 257 255 255 256 257 257 256 256 257 259 259 259 259 260 261 260 258 257 256 255 255 255 255 255 255 256 258
333 335 337 338 339 339 338 337 335 332 327 322 316 312 309 305 302 298 294 290 287 283 280 277 275 274 273 273 273 273 273 273 272 269 266 263 261 259 257 256 254 253 253 254 255 255 255 254 254 253 251 251 252 254 254 255 258 262 263 262 260 259 261 263 261 258 257 258 259 259 259 259 261 263 263 263 262 260 259 259 260 259 259 259 260
342 345 347 349 350 352 352 351 349 347 343 337 330 324 320 316 312 308 304 301 297 293 288 284 280 277 274 273 272 272 272 271 270 268 265 263 262 260 258 256 254 252 251 251 252 253 254 254 253 253 253 251 250 251 252 254 256 259 261 262 262 262 263 266 266 263 260 258 259 259 259 260 262 263 265 266 267 267 267 266 266 265 265 265 265
348 351 352 353 354 355 355 355 355 354 352 347 340 333 326 321 318 314 311 308 305 301 297 293 288 283 279 276 273 272 271 270 269 267 264 261 260 259 258 257 255 254 252 251 250 250 251 252 252 252 252 252 252 251 251 252 253 256 257 258 259 261 262 262 264 266 265 262 260 259 259 261 263 264 266 266 266 265 266 267 269 269 269 268 268
349 351 353 353 354 354 354 354 355 355 355 353 349 342 333 327 323 319 316 313 309 306 302 298 294 290 286 282 278 274 272 271 269 267 264 260 257 256 256 256 255 255 253 252 251 250 250 250 250 251 251 251 252 251 250 250 251 252 255 256 256 257 257 255 255 260 263 262 259 258 259 260 262 264 264 262 260 258 260 263 267 268 268 268 268
348 350 351 352 353 353 352 352 353 354 355 355 354 350 344 337 332 328 325 320 316 311 305 301 297 293 289 285 282 278 275 272 270 267 264 260 256 253 252 253 253 254 254 253 252 251 250 250 250 250 250 250 250 250 249 249 249 249 251 253 254 255 254 251 249 251 255 256 255 255 257 258 260 260 258 256 256 258 261 263 265 266 266 265 264
347 349 350 350 351 352 352 352 352 352 354 354 355 354 352 346 341 338 334 331 327 321 314 307 302 296 291 287 283 280 277 274 271 268 264 260 256 252 250 249 250 251 252 253 252 251 251 250 250 249 249 249 248 247 246 245 246 246 248 250 252 253 252 250 249 250 252 254 255 255 256 256 257 256 255 254 255 257 260 262 262 261 261 261 260
345 347 348 348 350 351 351 352 352 352 353 354 354 355 354 352 348 345 342 339 336 331 325 318 312 306 300 293 287 282 278 275 273 269 265 260 256 252 249 248 248 248 249 250 251 250 250 250 249 249 249 249 248 247 245 243 242 243 245 248 250 252 251 250 250 251 253 254 254 254 254 254 254 255 256 257 258 258 258 259 258 256 256 257 258
344 345 345 346 348 349 350 351 351 351 352 352 353 354 355 354 352 349 347 345 342 338 333 328 323 319 313 306 299 291 285 280 276 272 267 262 257 252 249 247 246 247 247 247 248 248 248 248 248 247 246 246 247 248 247 246 245 245 246 247 248 250 249 248 249 251 252 253 253 253 254 254 254 255 256 258 259 259 257 256 254 253 253 254 256
343 343 343 344 346 347 348 349 350 351 352 352 352 353 355 355 354 352 351 349 346 343 339 335 332 329 325 320 314 305 296 289 283 278 273 265 258 253 249 247 246 246 246 246 246 246 246 245 245 245 242 240 240 242 244 245 245 245 246 246 247 248 248 247 247 249 250 251 252 253 254 255 256 257 258 258 259 259 257 255 253 252 252 253 255
341 342 343 343 344 345 345 346 348 350 351 351 351 352 353 355 356 355 354 352 350 347 344 341 339 336 333 329 325 318 309 300 292 286 281 273 264 256 251 248 247 246 246 246 245 244 243 243 242 243 242 240 238 238 239 241 242 242 242 242 242 243 244 245 246 247 249 250 252 253 254 255 256 257 258 259 259 258 256 255 254 253 254 255 257
341 341 342 342 342 342 344 345 347 348 349 350 350 351 352 355 357 356 355 354 353 351 348 345 342 341 337 334 330 325 319 311 302 294 288 282 273 262 254 251 248 247 246 245 245 243 242 241 240 240 241 241 240 239 238 239 241 243 243 242 242 242 242 242 244 246 248 250 252 253 254 254 255 255 256 257 257 257 256 256 255 255 256 258 260
342 341 341 341 341 342 343 344 345 346 347 349 350 350 351 354 356 357 357 356 355 354 351 348 345 343 341 337 333 329 325 320 313 304 297 290 283 273 262 255 252 249 247 245 245 243 241 239 238 238 239 239 241 241 241 240 241 243 245 247 247 247 246 245 245 246 248 250 251 252 253 253 253 253 254 255 256 256 257 257 257 258 259 261 262
347 345 343 342 342 342 342 342 343 345 346 348 349 349 350 352 355 358 358 358 358 357 355 351 347 345 344 341 336 332 329 325 320 313 305 298 292 284 273 263 257 253 250 247 245 244 243 240 238 238 238 238 240 242 243 243 242 243 246 248 249 249 250 250 249 249 249 250 250 251 252 252 252 253 254 255 256 257 257 258 259 260 261 262 263
350 348 346 344 343 342 342 343 343 345 346 347 348 349 350 352 354 357 359 359 359 359 358 356 351 348 347 345 340 335 331 329 326 322 315 307 300 293 285 275 265 259 255 251 248 245 244 242 241 240 240 240 240 240 242 243 243 244 245 247 248 249 249 250 250 249 249 249 250 250 250 251 252 252 253 254 254 255 256 257 258 259 260 261 262
350 349 347 346 345 344 344 344 344 344 345 347 348 349 350 351 353 355 358 359 360 360 360 359 356 353 350 348 345 338 333 331 330 328 325 319 311 303 296 287 277 267 259 255 251 248 245 244 244 243 244 245 245 244 243 243 244 245 245 245 246 246 247 247 248 248 248 248 248 248 248 249 249 249 250 250 251 252 254 255 256 257 258 259 260
348 348 347 347 346 345 344 344 344 344 345 347 348 348 349 350 351 353 356 359 0 1 1 0 359 356 353 350 348 343 336 332 332 332 331 327 322 314 307 298 289 280 269 260 255 252 249 247 246 245 245 247 249 249 248 246 246 246 246 245 244 244 244 245 245 246 247 247 247 247 247 247 248 248 248 249 250 251 252 253 254 255 256 257 258
346 346 346 346 346 345 344 344 345 345 346 346 347 347 348 349 350 352 355 357 359 1 1 1 0 359 356 352 350 347 339 333 333 335 335 333 329 323 317 309 300 292 282 272 263 257 253 250 248 247 247 247 248 249 250 250 249 248 248 247 246 245 244 243 243 243 244 245 246 246 246 247 247 247 248 248 249 249 250 251 251 252 254 255 256
343 344 344 345 345 345 345 345 345 345 346 346 347 347 347 348 349 351 353 355 358 0 1 1 1 1 359 355 352 351 346 338 333 334 336 336 334 329 323 317 310 302 294 286 277 268 260 256 253 250 249 248 248 248 249 250 250 250 250 249 249 248 246 244 243 243 242 242 243 243 244 245 246 246 247 247 248 248 250 251 252 253 254 256 258
342 342 343 344 344 344 345 345 345 345 345 346 347 347 347 347 348 350 351 353 356 359 1 1 1 1 0 358 354 352 351 346 338 334 335 337 336 333 329 323 316 309 303 296 290 281 272 265 260 256 253 252 251 250 250 250 250 250 250 250 250 249 249 248 248 247 246 245 245 245 246 246 247 247 248 249 250 251 253 255 256 258 259 260 261
341 341 342 343 343 344 344 345 344 344 345 346 347 347 348 348 348 348 350 352 354 356 359 1 1 0 0 360 356 353 352 350 345 336 333 334 336 335 333 328 321 314 307 301 297 291 283 275 268 263 260 257 255 253 252 252 252 252 251 251 251 251 252 252 252 251 251 250 250 250 250 250 250 251 252 252 254 255 256 257 258 259 260 261 263
339 340 340 341 342 343 343 344 344 344 345 345 346 347 347 348 348 348 348 350 352 354 357 360 1 360 359 360 359 355 352 351 349 342 334 330 331 333 334 332 327 320 312 305 299 295 291 285 278 271 266 263 260 258 256 255 255 255 254 253 252 252 252 253 253 254 254 254 253 253 253 253 254 254 254 254 254 255 256 257 258 259 260 262 264
338 338 339 340 341 341 342 343 344 344 344 345 345 346 346 347 348 348 348 349 350 351 354 357 359 359 359 358 358 357 354 351 350 347 341 331 327 328 331 332 330 325 318 309 302 297 293 290 286 280 274 268 265 262 260 258 257 257 256 256 255 254 254 254 254 255 254 254 253 252 252 253 253 254 254 254 255 256 257 258 259 261 263 265 267
336 336 337 338 340 340 341 342 342 343 344 344 344 344 345 346 347 347 348 348 348 349 351 353 356 358 358 358 357 357 356 353 350 349 346 340 331 326 326 328 329 327 322 315 307 300 294 290 287 283 279 274 270 267 263 261 259 258 258 258 258 257 257 256 256 255 255 254 254 253 253 253 254 255 256 256 257 258 259 260 262 263 266 268 271
333 334 335 336 338 339 340 340 341 342 342 343 343 343 344 345 346 346 347 347 347 348 348 350 352 355 357 358 357 357 356 353 351 349 347 344 338 331 324 322 324 325 324 319 313 306 299 293 289 285 281 278 273 268 265 263 262 261 260 258 258 258 258 258 258 257 256 256 255 255 254 255 255 256 257 258 259 260 261 263 264 266 268 270 273
331 332 333 335 336 338 339 340 340 341 341 341 342 342 343 344 345 345 345 346 346 346 347 348 349 351 354 356 357 356 355 354 352 349 346 344 341 337 329 321 318 319 320 320 317 311 304 297 291 287 284 281 277 272 269 266 263 262 261 260 259 258 258 258 258 258 257 257 256 255 255 255 255 255 256 258 259 261 263 265 266 267 269 270 273
Height
5776 5775 5775 5774 5773 5772 5772 5771 5770 5769 5768 5767 5766 5765 5764 5763 5762 5761 5760 5758 5757 5755 5754 5752 5751 5749 5747 5746 5745 5742 5739 5736 5734 5733 5734 5734 5733 5732 5733 5734 5734 5735 5737 5739 5740 5741 5743 5744 5744 5745 5746 5747 5749 5750 5751 5752 5753 5753 5754 5756 5757 5757 5758 5759 5760 5761 5762 5762 5763 5763 5764 5765 5766 5768 5769 5768 5769 5771 5771 5771 5772 5773 5774 5774 5775
5772 5771 5771 5770 5769 5769 5768 5767 5766 5765 5764 5763 5762 5761 5760 5759 5758 5757 5756 5754 5753 5752 5750 5749 5747 5745 5743 5742 5740 5738 5735 5732 5729 5728 5729 5730 5729 5729 5730 5730 5730 5732 5734 5736 5737 5738 5739 5740 5741 5742 5743 5744 5746 5746 5747 5748 5749 5750 5751 5753 5754 5754 5755 5756 5757 5758 5759 5760 5760 5761 5761 5762 5763 5764 5766 5765 5766 5768 5769 5768 5769 5770 5771 5772 5773
5768 5767 5766 5766 5765 5764 5764 5763 5762 5761 5760 5759 5758 5757 5756 5755 5754 5753 5752 5750 5749 5748 5746 5745 5743 5742 5740 5738 5736 5734 5731 5728 5725 5724 5724 5725 5726 5726 5726 5726 5727 5729 5730 5731 5733 5734 5735 5737 5738 5740 5741 5742 5743 5744 5744 5745 5746 5746 5747 5748 5749 5751 5752 5753 5754 5755 5756 5756 5757 5758 5759 5759 5760 5761 5763 5762 5763 5766 5766 5766 5767 5768 5768 5769 5770
5764 5763 5762 5762 5761 5760 5760 5759 5758 5757 5756 5755 5754 5753 5752 5751 5750 5749 5748 5746 5745 5744 5742 5741 5739 5738 5736 5735 5733 5730 5727 5724 5721 5720 5719 5720 5721 5722 5722 5722 5722 5724 5726 5727 5728 5729 5730 5732 5734 5736 5737 5739 5740 5740 5740 5742 5743 5744 5744 5743 5744 5747 5749 5750 5751 5752 5752 5753 5753 5755 5755 5756 5757 5758 5759 5759 5760 5763 5763 5763 5764 5765 5766 5766 5767
5760 5759 5758 5758 5757 5756 5756 5755 5754 5753 5752 5751 5750 5749 5748 5747 5746 5745 5744 5742 5741 5740 5738 5737 5736 5734 5732 5731 5729 5727 5723 5720 5718 5717 5716 5716 5717 5718 5718 5718 5719 5720 5722 5723 5724 5724 5726 5728 5730 5733 5734 5736 5737 5737 5737 5738 5740 5741 5741 5739 5740 5744 5746 5747 5747 5748 5749 5749 5751 5752 5752 5753 5754 5755 5756 5756 5757 5759 5760 5760 5761 5762 5763 5763 5764
5755 5755 5754 5754 5753 5752 5752 5751 5750 5749 5749 5748 5747 5746 5744 5743 5742 5741 5740 5739 5737 5736 5734 5733 5732 5730 5728 5726 5724 5723 5720 5717 5715 5714 5713 5713 5713 5714 5714 5715 5717 5718 5718 5720 5721 5721 5721 5723 5726 5729 5730 5732 5733 5734 5734 5735 5737 5738 5738 5737 5738 5740 5742 5742 5743 5745 5746 5747 5748 5749 5749 5750 5751 5751 5752 5753 5754 5755 5757 5758 5758 5759 5760 5760 5761
5752 5751 5750 5750 5749 5748 5748 5747 5746 5745 5744 5743 5742 5741 5740 5739 5739 5737 5736 5734 5733 5732 5731 5729 5728 5727 5724 5721 5719 5718 5716 5714 5712 5711 5710 5711 5711 5711 5711 5711 5713 5714 5715 5716 5717 5718 5718 5719 5722 5724 5726 5728 5730 5731 5731 5732 5733 5734 5735 5735 5735 5736 5737 5738 5739 5741 5743 5744 5745 5745 5746 5747 5748 5748 5749 5750 5751 5752 5754 5755 5755 5756 5757 5757 5758
5747 5747 5746 5746 5745 5744 5744 5743 5742 5741 5740 5739 5738 5737 5736 5735 5734 5733 5732 5730 5729 5728 5727 5725 5724 5723 5721 5718 5715 5714 5712 5710 5708 5707 5707 5707 5707 5707 5707 5708 5709 5710 5711 5712 5713 5714 5714 5716 5718 5720 5722 5724 5726 5727 5728 5728 5730 5731 5732 5733 5733 5733 5734 5735 5736 5737 5739 5741 5742 5742 5743 5744 5745 5745 5745 5748 5749 5749 5749 5751 5752 5753 5753 5754 5755
5743 5743 5742 5741 5741 5740 5739 5739 5738 5737 5736 5735 5734 5733 5732 5731 5730 5728 5727 5726 5724 5723 5722 5721 5720 5719 5718 5715 5712 5710 5708 5706 5705 5703 5703 5703 5703 5704 5704 5704 5705 5706 5707 5709 5710 5711 5712 5713 5714 5717 5719 5720 5721 5724 5725 5726 5727 5728 5729 5730 5730 5729 5730 5732 5733 5734 5735 5737 5738 5739 5740 5741 5742 5742 5742 5744 5746 5746 5746 5748 5749 5750 5750 5750 5752
5739 5739 5738 5737 5736 5736 5735 5734 5734 5733 5732 5731 5729 5728 5727 5726 5725 5723 5722 5721 5720 5719 5717 5716 5716 5715 5714 5712 5710 5707 5705 5703 5701 5699 5699 5699 5699 5700 5700 5701 5702 5703 5704 5706 5708 5709 5710 5710 5710 5712 5714 5716 5717 5720 5721 5722 5723 5725 5725 5726 5727 5726 5727 5728 5729 5730 5731 5732 5734 5736 5737 5738 5740 5739 5739 5740 5743 5743 5744 5745 5745 5746 5747 5747 5748
5735 5734 5733 5733 5732 5731 5730 5730 5729 5728 5727 5726 5725 5724 5722 5721 5720 5718 5717 5716 5715 5714 5713 5711 5711 5711 5710 5709 5707 5705 5703 5701 5698 5696 5696 5695 5695 5696 5697 5698 5699 5700 5701 5703 5705 5706 5706 5706 5707 5708 5710 5711 5713 5715 5717 5718 5719 5720 5721 5722 5723 5723 5723 5724 5725 5726 5727 5728 5729 5731 5733 5734 5736 5736 5735 5736 5738 5739 5741 5742 5742 5742 5743 5744 5744
5730 5730 5729 5728 5727 5726 5726 5725 5724 5723 5722 5721 5720 5719 5717 5716 5715 5714 5713 5711 5710 5709 5708 5706 5706 5706 5706 5705 5703 5702 5701 5699 5696 5695 5694 5693 5693 5693 5694 5695 5696 5697 5698 5699 5701 5701 5702 5703 5703 5704 5706 5707 5709 5710 5711 5713 5714 5715 5717 5718 5718 5718 5720 5720 5721 5722 5723 5724 5725 5727 5728 5729 5731 5733 5732 5733 5734 5735 5736 5738 5738 5738 5739 5739 5740
5726 5725 5724 5723 5722 5722 5721 5720 5719 5718 5717 5716 5715 5714 5712 5711 5710 5709 5708 5706 5705 5704 5702 5701 5700 5700 5701 5700 5699 5699 5698 5696 5695 5693 5692 5691 5691 5690 5691 5692 5692 5693 5695 5696 5697 5698 5700 5700 5701 5701 5702 5703 5705 5705 5706 5708 5709 5711 5713 5713 5714 5714 5716 5717 5718 5718 5719 5721 5722 5723 5724 5725 5727 5728 5729 5729 5730 5731 5731 5733 5734 5734 5734 5734 5735
5721 5720 5720 5719 5717 5717 5716 5715 5714 5713 5712 5711 5710 5708 5707 5706 5705 5704 5703 5701 5700 5698 5697 5696 5695 5695 5695 5696 5695 5694 5694 5693 5692 5691 5690 5689 5688 5688 5689 5689 5690 5690 5691 5692 5693 5694 5695 5696 5697 5698 5699 5699 5699 5700 5702 5703 5705 5706 5707 5708 5710 5712 5713 5713 5714 5714 5715 5717 5718 5719 5720 5721 5722 5723 5724 5725 5726 5727 5728 5729 5729 5729 5729 5730 5731
5717 5716 5715 5714 5713 5712 5711 5710 5709 5708 5706 5705 5704 5703 5702 5701 5700 5699 5698 5696 5695 5693 5692 5690 5689 5689 5689 5690 5690 5690 5689 5689 5689 5688 5687 5685 5685 5685 5685 5686 5686 5686 5687 5687 5688 5689 5690 5691 5693 5693 5694 5695 5695 5696 5698 5699 5700 5702 5703 5703 5705 5708 5709 5709 5709 5710 5711 5712 5714 5715 5716 5717 5718 5719 5719 5720 5721 5722 5724 5724 5724 5725 5725 5726 5727
5712 5711 5710 5709 5707 5707 5706 5704 5703 5702 5701 5699 5698 5697 5696 5695 5694 5693 5692 5691 5690 5688 5687 5686 5684 5683 5683 5684 5685 5684 5684 5684 5684 5684 5683 5682 5681 5681 5681 5681 5682 5682 5682 5683 5684 5685 5686 5687 5688 5689 5689 5690 5692 5693 5694 5695 5696 5697 5698 5699 5701 5703 5704 5704 5705 5706 5707 5708 5709 5710 5711 5713 5713 5714 5715 5716 5717 5718 5719 5720 5720 5720 5721 5722 5722
5708 5706 5705 5704 5702 5701 5700 5699 5697 5696 5695 5693 5692 5691 5689 5688 5687 5687 5686 5685 5684 5683 5681 5680 5679 5678 5677 5678 5679 5679 5679 5679 5679 5679 5679 5678 5677 5677 5676 5677 5677 5677 5678 5678 5679 5681 5682 5683 5684 5684 5685 5686 5688 5689 5690 5691 5692 5692 5694 5695 5697 5698 5699 5700 5701 5702 5702 5704 5705 5706 5708 5709 5709 5709 5710 5712 5713 5714 5714 5715 5716 5716 5716 5717 5718
5703 5701 5700 5699 5697 5696 5694 5693 5691 5690 5689 5687 5686 5684 5683 5681 5681 5680 5679 5678 5677 5676 5675 5674 5673 5673 5672 5672 5673 5674 5674 5673 5673 5674 5674 5674 5673 5672 5672 5672 5672 5673 5673 5673 5674 5676 5677 5678 5679 5680 5681 5682 5684 5685 5686 5687 5688 5688 5689 5690 5692 5693 5694 5696 5698 5698 5698 5699 5700 5702 5704 5704 5704 5705 5706 5707 5708 5709 5709 5711 5712 5711 5711 5712 5713
5698 5697 5695 5694 5692 5691 5689 5687 5686 5684 5683 5681 5679 5677 5676 5675 5673 5672 5671 5671 5670 5669 5668 5667 5667 5666 5666 5665 5666 5667 5668 5668 5668 5668 5668 5669 5668 5668 5668 5667 5667 5668 5668 5668 5670 5671 5671 5672 5674 5675 5676 5678 5680 5681 5681 5683 5684 5683 5683 5685 5687 5688 5690 5691 5693 5694 5695 5695 5696 5698 5699 5699 5699 5700 5701 5702 5703 5704 5706 5708 5708 5707 5706 5706 5708
5693 5692 5690 5688 5687 5685 5684 5682 5680 5678 5676 5674 5672 5670 5669 5667 5666 5664 5663 5663 5662 5661 5660 5660 5659 5659 5659 5659 5659 5660 5661 5662 5662 5662 5662 5662 5663 5663 5663 5662 5662 5663 5663 5664 5664 5665 5666 5667 5668 5669 5671 5674 5677 5678 5677 5679 5680 5679 5679 5680 5681 5683 5685 5686 5688 5689 5691 5692 5693 5693 5694 5694 5695 5696 5696 5698 5699 5700 5703 5704 5703 5703 5704 5703 5703
5688 5687 5685 5683 5681 5679 5678 5676 5674 5672 5669 5667 5665 5663 5662 5660 5658 5657 5655 5654 5653 5652 5652 5652 5651 5650 5650 5651 5652 5653 5654 5655 5655 5655 5655 5655 5656 5657 5657 5657 5657 5658 5658 5659 5659 5660 5661 5662 5663 5664 5666 5669 5672 5673 5672 5673 5675 5675 5675 5676 5676 5677 5679 5681 5682 5684 5685 5686 5687 5687 5688 5690 5690 5691 5691 5693 5694 5695 5698 5699 5699 5700 5702 5701 5699
5683 5682 5680 5678 5676 5674 5672 5670 5668 5665 5663 5661 5658 5656 5654 5652 5650 5649 5648 5646 5645 5644 5643 5643 5642 5642 5641 5642 5643 5644 5646 5647 5648 5649 5649 5649 5649 5650 5650 5651 5651 5652 5653 5654 5654 5654 5655 5657 5657 5658 5660 5663 5665 5666 5666 5667 5669 5670 5670 5671 5671 5672 5674 5675 5676 5678 5679 5680 5681 5681 5683 5684 5684 5685 5686 5687 5689 5690 5691 5693 5694 5696 5697 5696 5695
5679 5677 5675 5673 5670 5668 5665 5663 5661 5659 5656 5653 5651 5649 5647 5645 5643 5641 5640 5639 5637 5636 5635 5635 5634 5633 5633 5633 5633 5635 5637 5638 5640 5641 5642 5642 5642 5642 5643 5644 5645 5646 5647 5648 5649 5649 5650 5651 5653 5653 5654 5656 5658 5660 5661 5662 5663 5664 5664 5665 5666 5667 5667 5669 5670 5672 5673 5674 5674 5674 5676 5677 5678 5679 5680 5681 5682 5683 5684 5686 5687 5689 5690 5690 5689
5674 5672 5670 5668 5665 5662 5660 5657 5654 5652 5649 5646 5643 5641 5638 5637 5635 5633 5632 5631 5629 5628 5627 5627 5626 5625 5624 5624 5624 5625 5627 5629 5631 5633 5634 5634 5635 5635 5636 5637 5638 5639 5640 5641 5643 5644 5645 5646 5647 5648 5649 5650 5651 5653 5654 5655 5657 5658 5658 5659 5660 5660 5660 5662 5664 5665 5666 5667 5667 5667 5669 5670 5670 5672 5673 5674 5676 5677 5678 5680 5681 5682 5683 5683 5683
5671 5668 5665 5663 5660 5657 5654 5651 5648 5645 5643 5639 5636 5634 5631 5628 5627 5625 5624 5622 5621 5620 5619 5619 5618 5618 5616 5615 5616 5617 5618 5620 5622 5624 5625 5626 5627 5628 5629 5629 5630 5631 5633 5634 5635 5637 5638 5640 5642 5643 5644 5645 5646 5647 5648 5649 5650 5651 5651 5652 5653 5653 5654 5655 5657 5659 5660 5660 5660 5661 5662 5662 5663 5665 5666 5667 5669 5671 5672 5673 5674 5675 5676 5676 5676
5667 5665 5662 5659 5657 5654 5651 5647 5644 5640 5637 5634 5631 5628 5624 5622 5619 5618 5616 5614 5613 5612 5611 5610 5610 5609 5608 5607 5607 5608 5609 5611 5613 5615 5617 5618 5619 5620 5621 5622 5623 5624 5625 5627 5628 5630 5631 5633 5635 5637 5639 5639 5640 5641 5642 5643 5643 5644 5644 5645 5646 5647 5647 5649 5651 5652 5653 5653 5653 5655 5656 5657 5658 5659 5660 5661 5662 5663 5664 5665 5666 5668 5669 5669 5669
5664 5662 5659 5656 5654 5651 5647 5644 5641 5637 5633 5629 5626 5623 5620 5616 5614 5611 5609 5607 5605 5604 5603 5602 5601 5601 5600 5600 5599 5600 5601 5602 5604 5606 5608 5609 5611 5612 5613 5614 5616 5617 5618 5619 5621 5622 5624 5625 5628 5630 5632 5633 5634 5635 5636 5637 5637 5637 5638 5639 5639 5640 5641 5642 5644 5646 5646 5646 5647 5649 5650 5651 5652 5653 5654 5655 5656 5656 5658 5659 5659 5660 5662 5663 5663
5661 5659 5657 5654 5651 5648 5645 5641 5638 5635 5631 5627 5623 5619 5615 5612 5609 5607 5604 5602 5600 5598 5596 5594 5593 5593 5592 5592 5591 5591 5591 5593 5595 5597 5599 5601 5602 5604 5605 5606 5608 5609 5611 5612 5614 5615 5616 5618 5620 5622 5624 5626 5627 5628 5630 5631 5632 5632 5633 5633 5634 5635 5636 5636 5638 5639 5640 5641 5642 5643 5644 5645 5646 5647 5648 5649 5650 5651 5652 5652 5653 5654 5655 5656 5656
5659 5657 5654 5651 5649 5646 5643 5640 5636 5632 5629 5625 5621 5617 5613 5609 5606 5603 5600 5597 5595 5592 5590 5587 5586 5586 5585 5584 5584 5583 5583 5584 5586 5588 5590 5592 5594 5595 5597 5598 5600 5601 5603 5605 5606 5608 5609 5611 5612 5614 5616 5618 5620 5622 5623 5625 5625 5626 5627 5628 5629 5630 5631 5632 5632 5633 5634 5635 5636 5637 5639 5640 5641 5642 5643 5644 5644 5645 5646 5647 5648 5648 5649 5649 5650
5657 5654 5652 5650 5647 5644 5641 5638 5635 5631 5627 5623 5619 5616 5612 5608 5604 5600 5596 5593 5590 5587 5584 5581 5580 5579 5578 5577 5576 5576 5575 5576 5577 5579 5581 5583 5585 5587 5589 5590 5592 5593 5595 5597 5599 5600 5602 5603 5605 5607 5608 5610 5612 5614 5616 5617 5618 5619 5620 5622 5623 5624 5625 5626 5627 5628 5629 5630 5631 5632 5633 5634 5635 5636 5637 5638 5639 5640 5641 5642 5642 5642 5642 5643 5643
5655 5653 5650 5648 5646 5643 5640 5636 5633 5630 5626 5621 5617 5613 5609 5605 5601 5597 5593 5589 5586 5583 5580 5576 5574 5572 5571 5570 5569 5568 5568 5569 5569 5570 5571 5573 5576 5579 5581 5582 5584 5585 5587 5589 5591 5592 5594 5596 5598 5600 5601 5603 5604 5606 5608 5610 5612 5613 5614 5615 5616 5618 5619 5620 5621 5622 5623 5624 5625 5625 5626 5627 5628 5629 5631 5632 5633 5634 5635 5635 5635 5635 5635 5635 5636
5653 5651 5649 5646 5644 5641 5638 5635 5631 5628 5624 5620 5615 5610 5606 5602 5598 5594 5590 5586 5582 5579 5575 5572 5568 5566 5564 5564 5563 5562 5561 5562 5562 5562 5563 5565 5567 5570 5572 5574 5576 5577 5579 5581 5583 5585 5587 5588 5590 5592 5594 5596 5597 5599 5601 5603 5605 5606 5607 5608 5609 5611 5612 5613 5614 5616 5617 5617 5618 5619 5620 5621 5622 5623 5624 5624 5625 5626 5627 5627 5628 5628 5627 5628 5628
5651 5649 5647 5645 5642 5639 5636 5633 5630 5626 5622 5618 5614 5609 5604 5599 5595 5591 5586 5582 5578 5574 5570 5567 5564 5561 5559 5558 5557 5556 5555 5555 5555 5555 5555 5557 5559 5561 5564 5566 5567 5569 5571 5573 5575 5578 5579 5581 5583 5585 5587 5588 5590 5592 5594 5596 5597 5599 5600 5601 5602 5604 5605 5607 5608 5609 5610 5611 5611 5612 5613 5614 5615 5616 5617 5617 5618 5619 5620 5620 5621 5621 5621 5621 5621
5649 5647 5645 5643 5640 5637 5634 5631 5628 5624 5620 5616 5612 5607 5602 5597 5593 5588 5583 5578 5574 5570 5566 5563 5560 5558 5555 5553 5552 5551 5550 5549 5549 5548 5549 5550 5552 5554 5556 5558 5559 5561 5563 5566 5568 5570 5572 5574 5576 5578 5580 5582 5583 5585 5587 5588 5590 5592 5593 5594 5595 5597 5598 5600 5601 5602 5603 5604 5605 5606 5606 5607 5608 5609 5610 5611 5611 5612 5613 5613 5614 5614 5614 5614 5615
5648 5646 5643 5641 5638 5636 5632 5629 5626 5623 5619 5614 5610 5606 5601 5596 5591 5586 5581 5576 5571 5566 5563 5560 5557 5554 5552 5550 5548 5547 5546 5545 5544 5543 5544 5545 5545 5547 5549 5550 5552 5553 5555 5558 5560 5563 5565 5567 5569 5571 5573 5575 5577 5578 5580 5581 5583 5584 5586 5587 5588 5590 5591 5593 5594 5595 5596 5597 5598 5598 5599 5600 5601 5602 5603 5604 5604 5605 5606 5606 5607 5607 5608 5608 5608
5646 5644 5641 5639 5636 5634 5631 5628 5624 5620 5617 5613 5609 5604 5600 5595 5590 5584 5579 5574 5569 5564 5561 5557 5554 5552 5549 5547 5545 5543 5542 5541 5540 5539 5539 5539 5540 5541 5542 5543 5545 5546 5548 5550 5553 5555 5558 5560 5562 5564 5566 5568 5570 5571 5573 5574 5575 5577 5578 5579 5581 5582 5584 5585 5587 5588 5589 5590 5590 5591 5592 5593 5594 5595 5596 5596 5597 5598 5599 5599 5600 5601 5601 5601 5601
5644 5642 5640 5637 5635 5632 5629 5626 5622 5619 5615 5611 5607 5603 5598 5594 5589 5584 5579 5573 5568 5563 5559 5556 5553 5550 5547 5545 5543 5541 5539 5538 5537 5536 5535 5535 5535 5536 5536 5537 5538 5540 5542 5544 5546 5548 5550 5553 5555 5557 5559 5561 5562 5564 5566 5567 5568 5570 5571 5572 5573 5575 5576 5577 5579 5580 5582 5583 5584 5584 5585 5586 5587 5588 5588 5589 5590 5591 5592 5592 5593 5594 5594 5594 5594
5642 5640 5638 5635 5633 5630 5627 5623 5620 5617 5614 5610 5606 5601 5597 5593 5588 5583 5578 5573 5568 5563 5559 5555 5551 5548 5546 5543 5541 5539 5537 5535 5534 5533 5532 5532 5531 5531 5532 5533 5533 5534 5536 5538 5540 5542 5544 5546 5548 5550 5552 5554 5556 5557 5559 5560 5561 5563 5564 5565 5566 5567 5569 5570 5571 5573 5574 5575 5576 5577 5578 5579 5579 5580 5581 5582 5583 5584 5584 5585 5585 5586 5587 5587 5587
5641 5639 5636 5634 5631 5628 5626 5623 5619 5616 5612 5608 5604 5600 5596 5592 5588 5583 5578 5573 5567 5563 5558 5554 5551 5547 5544 5541 5539 5537 5535 5534 5532 5531 5530 5529 5529 5528 5528 5529 5529 5530 5531 5533 5535 5536 5538 5540 5542 5544 5545 5547 5549 5551 5552 5553 5555 5556 5557 5558 5559 5561 5562 5563 5564 5565 5567 5568 5569 5569 5570 5571 5572 5573 5574 5575 5576 5576 5577 5577 5578 5578 5579 5579 5580
5639 5637 5635 5632 5630 5627 5624 5621 5617 5614 5611 5607 5603 5599 5595 5591 5587 5582 5577 5572 5567 5562 5558 5554 5550 5546 5543 5540 5537 5535 5534 5532 5531 5530 5528 5527 5527 5526 5525 5525 5526 5526 5527 5528 5530 5531 5532 5534 5536 5537 5539 5541 5543 5544 5546 5547 5548 5550 5551 5552 5553 5554 5555 5557 5558 5559 5560 5561 5561 5562 5563 5564 5565 5566 5567 5568 5569 5569 5570 5570 5571 5572 5572 5572 5573
5637 5635 5633 5630 5627 5624 5621 5618 5615 5612 5608 5605 5601 5597 5593 5589 5586 5581 5577 5572 5567 5562 5557 5553 5550 5546 5542 5539 5536 5534 5532 5531 5529 5528 5527 5526 5525 5524 5524 5523 5523 5523 5524 5524 5525 5526 5528 5529 5530 5532 5534 5535 5537 5538 5540 5541 5542 5544 5545 5546 5547 5548 5549 5550 5551 5552 5553 5554 5555 5556 5557 5558 5559 5560 5561 5561 5562 5563 5563 5564 5564 5565 5565 5566 5566
5636 5633 5631 5628 5626 5623 5620 5617 5614 5610 5606 5603 5599 5596 5592 5588 5584 5580 5576 5572 5567 5562 5557 5553 5549 5546 5542 5539 5536 5534 5531 5530 5528 5527 5526 5525 5524 5523 5522 5522 5521 5521 5521 5521 5522 5523 5524 5525 5526 5527 5529 5530 5531 5533 5534 5535 5537 5538 5539 5540 5541 5542 5543 5544 5545 5546 5547 5548 5549 5550 5551 5552 5553 5554 5554 5555 5556 5556 5557 5557 5558 5559 5559 5560 5560
5634 5632 5629 5627 5624 5621 5618 5615 5612 5609 5605 5602 5598 5594 5591 5587 5583 5579 5575 5571 5566 5562 5557 5553 5549 5546 5542 5539 5536 5534 5531 5529 5528 5526 5525 5524 5522 5521 5521 5520 5520 5519 5519 5519 5519 5520 5520 5521 5522 5523 5524 5526 5526 5527 5529 5530 5532 5533 5534 5535 5536 5537 5538 5539 5540 5540 5541 5543 5544 5545 5545 5546 5547 5548 5549 5550 5550 5551 5551 5552 5553 5553 5554 5554 5554
5632 5630 5628 5625 5622 5619 5616 5614 5611 5607 5604 5600 5597 5593 5590 5586 5582 5578 5574 5570 5566 5562 5558 5553 5549 5545 5542 5539 5536 5534 5531 5529 5527 5526 5524 5523 5522 5520 5520 5519 5518 5518 5517 5517 5517 5517 5518 5518 5519 5520 5520 5521 5522 5523 5525 5526 5527 5528 5530 5531 5531 5532 5533 5534 5535 5536 5537 5538 5538 5539 5541 5541 5542 5543 5544 5545 5545 5546 5546 5547 5548 5548 5549 5549 5550
5631 5628 5626 5623 5620 5617 5615 5612 5609 5606 5603 5599 5596 5592 5588 5585 5581 5577 5573 5570 5566 5562 5558 5554 5549 5545 5542 5539 5536 5533 5531 5529 5527 5526 5524 5522 5521 5520 5519 5518 5517 5516 5516 5515 5515 5515 5516 5516 5516 5517 5517 5518 5519 5520 5521 5522 5523 5524 5525 5526 5527 5527 5529 5530 5531 5532 5532 5533 5534 5536 5537 5537 5537 5538 5539 5540 5541 5541 5542 5543 5543 5544 5544 5545 5545
5629 5627 5624 5622 5619 5616 5613 5610 5607 5604 5601 5598 5594 5591 5587 5583 5580 5576 5572 5569 5565 5562 5558 5553 5549 5545 5541 5539 5536 5533 5530 5529 5527 5525 5524 5522 5521 5519 5518 5517 5516 5515 5515 5514 5514 5514 5514 5514 5514 5514 5515 5515 5516 5517 5517 5518 5520 5520 5521 5521 5522 5524 5525 5526 5527 5527 5528 5529 5531 5532 5532 5532 5533 5534 5535 5536 5537 5538 5538 5539 5539 5540 5540 5541 5541
5627 5625 5623 5620 5617 5614 5611 5609 5606 5602 5599 5596 5593 5589 5586 5582 5579 5575 5571 5567 5564 5560 5557 5553 5549 5545 5541 5538 5536 5533 5530 5528 5526 5525 5523 5522 5520 5519 5518 5516 5515 5514 5513 5513 5512 5512 5512 5512 5512 5512 5512 5513 5513 5514 5515 5516 5516 5516 5517 5518 5519 5520 5521 5522 5523 5523 5524 5526 5527 5528 5528 5529 5530 5531 5532 5532 5533 5534 5535 5536 5536 5536 5537 5537 5537
5625 5623 5621 5618 5615 5612 5609 5607 5604 5601 5598 5594 5591 5588 5585 5581 5578 5574 5570 5567 5563 5559 5556 5553 5549 5546 5542 5538 5536 5533 5530 5528 5525 5524 5523 5521 5520 5518 5517 5516 5515 5513 5512 5511 5511 5511 5510 5510 5510 5510 5510 5510 5511 5511 5512 5512 5513 5513 5514 5515 5516 5517 5518 5519 5519 5520 5521 5522 5523 5524 5525 5526 5527 5528 5528 5529 5530 5531 5531 5532 5532 5533 5533 5533 5534
5623 5621 5618 5616 5613 5611 5608 5605 5602 5599 5596 5593 5590 5586 5583 5580 5577 5573 5570 5567 5563 5560 5556 5553 5550 5546 5543 5539 5535 5532 5530 5527 5525 5523 5521 5520 5519 5518 5516 5515 5514 5513 5512 5510 5510 5509 5509 5509 5508 5508 5508 5508 5509 5509 5509 5509 5510 5511 5512 5513 5513 5514 5515 5516 5516 5517 5518 5519 5520 5521 5522 5522 5523 5524 5525 5526 5526 5527 5528 5529 5529 5529 5530 5530 5530
5621 5619 5616 5614 5611 5609 5606 5603 5600 5597 5594 5591 5588 5585 5582 5579 5575 5572 5569 5566 5563 5559 5556 5553 5549 5546 5543 5539 5535 5532 5529 5527 5524 5522 5520 5518 5517 5516 5515 5514 5513 5512 5511 5510 5509 5508 5507 5507 5507 5507 5506 5506 5506 5506 5506 5507 5508 5508 5509 5509 5510 5511 5512 5512 5513 5514 5515 5516 5516 5517 5518 5519 5520 5521 5521 5522 5523 5524 5525 5525 5526 5526 5527 5527 5527
5619 5616 5614 5611 5609 5606 5604 5601 5598 5595 5592 5589 5586 5583 5580 5577 5574 5571 5568 5565 5561 5558 5555 5552 5548 5545 5542 5539 5536 5533 5529 5526 5524 5521 5519 5517 5516 5515 5514 5513 5512 5511 5510 5509 5508 5507 5506 5506 5505 5505 5505 5504 5504 5504 5504 5505 5505 5505 5506 5507 5507 5508 5509 5509 5510 5511 5511 5512 5513 5514 5515 5516 5517 5517 5518 5519 5520 5521 5521 5522 5523 5523 5523 5524 5524